Reflectivity
-20 -20 -20 -20 -20 -20 -20 -20 -20 -20 -20 -20 -20 -20 -20 -20 -20 -20 -20 -20 -20 -20 -20 -20 -20 -20 -20 -20 -20 -20 -20 -20 -20 -20 -20 -20 -20 -20 -20 -20 -20 -20 -20 -20
-20 -20 -20 -20 -20 -20 -20 -20 -20 -20 -20 -20 -20 -20 -20 -20 -20 -20 -20 -20 -20 -20 -20 -20 -20 -20 -20 -20 -20 -20 -20 -20 -20 -20 -20 -20 -20 -20 -20 -20 -20 -20 -20 -20
-6 -20 -20 -20 -20 -20 -20 -20 -20 -20 -20 -20 -20 -20 -20 -20 -20 -20 -20 -20 -20 -20 -20 -20 -20 -20 -20 -20 -20 -20 -20 -20 -20 -20 -20 -20 -20 -20 -20 -20 -20 -20 -20 -20
-1 -20 -20 -20 -20 -20 -20 -20 -20 -20 -20 -20 -20 -20 -20 -20 -20 -20 -20 -20 -20 -20 -20 -20 -20 -20 -20 -20 -20 -20 -20 -20 -20 -20 -20 -20 -20 -20 -20 -20 -20 -20 -20 -20
-20 -20 -20 -20 -20 -20 -20 -20 -20 -20 -20 -20 -20 -20 -20 -20 -20 -20 -20 -20 -20 -20 -20 -20 -20 -20 -20 -20 -20 -20 -20 -20 -20 -20 -20 -20 -20 -20 -20 -20 -20 -20 -20 -20
-20 -20 -20 -20 -20 -20 -20 -20 -20 -20 -20 -20 -20 -20 -20 -20 -20 -20 -20 -20 -20 -20 -20 -20 -20 -20 -20 -20 -20 -20 -20 -20 -20 -20 -20 -20 -18 -20 -20 -20 -20 -20 -20 -20
-20 -20 -20 -20 -20 -20 -20 -20 -20 -20 -20 -20 -20 -20 -20 -20 -20 -20 -20 -20 -20 -20 -20 -20 -20 -20 -20 -20 -20 -20 -20 -20 -20 -20 -20 -13 -20 -11 -18 -19 -20 -20 -20 -20
-20 -20 -20 -20 -20 -20 -20 -20 -20 -20 -20 -20 -20 -20 -20 -20 -20 -20 -20 -20 -20 -20 -20 -20 -20 -20 -20 -20 -20 -20 -20 -20 -20 -20 -20 -20 -19 -20 -20 -17 -18 -20 -20 3
-20 -13 -20 -20 -20 -20 -20 -20 -20 -20 -20 -20 -20 -20 -20 -20 -20 -20 -20 -20 -20 -20 -20 -20 -20 -20 -20 -20 -20 -20 -20 -20 -20 -20 -20 -20 -19 -19 -18 -20 -15 -20 -2 -1
-18 -20 -20 -20 -20 -20 -20 -20 -20 -20 -20 -20 -20 -20 -20 -20 -20 -20 -20 -20 -20 -20 -20 -20 -20 -20 -20 -20 -20 -20 -20 -20 -20 -20 -18 -20 -20 -16 -16 -19 -19 -10 -1 -18
-6 -20 -20 -20 -20 -20 -20 -20 -20 -20 -20 -20 -20 -20 -20 -20 -20 -20 -20 -20 -20 -20 -20 -20 -20 -20 -20 -20 -20 -20 -20 -20 -20 -20 -20 -20 -20 -4 2 -14 16 24 21 23
-20 -20 -20 -20 -20 -20 -20 -20 -20 -20 -20 -20 -20 -20 -20 -20 -20 -20 -20 -20 -20 -20 -20 -20 -20 -20 -20 -20 -20 -20 -20 -20 -20 -20 -20 -20 -20 -20 -16 19 20 24 28 25
-20 -20 -20 -20 -20 -20 -20 -20 -20 -20 -20 -20 -20 -20 -20 -20 -20 -20 -20 -20 -20 -20 -20 -20 -20 -20 -20 -20 -20 -20 -20 -20 -20 -17 -20 -20 -20 -19 -15 -1 19 23 29 28
-20 -20 -20 -20 -20 -20 -20 -20 -20 -20 -20 -20 -20 -20 -20 -20 -20 -20 -20 -20 -20 -20 -20 -20 -20 -20 -20 -20 -20 -20 -20 -16 -8 -20 -20 -20 -20 -18 6 0 -3 6 26 23
-20 -20 -20 -20 -20 -20 -20 -20 -20 -20 -20 -20 -20 -20 -20 -20 -20 -20 -20 -20 -20 -20 -20 -20 -20 -20 -20 -20 -20 -20 -20 -20 -17 -11 -11 -14 -17 -20 -10 5 -1 17 25 24
-20 -20 -20 -20 -20 -20 -20 -20 -20 -20 -20 -20 -20 -20 -20 -20 -20 -20 -20 -20 -20 -20 -20 -20 -20 -20 -20 -20 -20 -20 -20 -3 6 -13 -20 -20 -20 -20 -19 -18 -4 17 25 7
-20 -20 -20 -20 -20 -20 -20 -20 -20 -20 -20 -20 -20 -20 -20 -20 -20 -20 -20 -20 -20 -20 -20 -20 -20 -20 -17 -20 -20 -20 -12 -20 -9 -20 -20 -20 -20 -20 -20 -4 -2 22 15 22
-20 -20 -20 -20 -20 -20 -20 -20 -20 -20 -20 -20 -20 -20 -20 -20 -20 -20 -20 -20 -20 -20 -20 -20 -19 4 -20 -20 -17 4 -20 -20 -20 -20 -20 -20 -20 -20 -11 -3 0 6 9 25
-20 -20 -20 -20 -20 -20 -20 -20 -20 -20 -20 -20 -20 -20 -20 -20 -20 -20 -20 -20 -20 -20 -20 -20 -0 -20 -20 -20 7 -16 -20 -20 -20 -20 -20 -20 -20 -18 -0 2 9 12 14 8
-20 -20 -20 -20 -20 -20 -20 -20 -20 -20 -20 -20 -20 -20 -20 -20 -20 -20 -20 -20 -20 -20 -20 -15 -20 -20 -20 -5 -10 -20 -20 -20 -20 -20 -20 -20 -20 -20 5 16 17 13 14 2
-20 -20 -20 -20 -20 -20 -20 -20 -20 -20 -20 -20 -20 -20 -20 -20 -20 -20 -20 -20 -20 -19 -5 -20 -20 -12 6 -2 -20 -20 -20 -20 -20 -20 -20 -19 -20 -11 5 8 12 15 11 -1
-20 -20 -20 -20 -20 -20 -20 -20 -20 -20 -20 -20 -20 -20 -20 -20 -20 -20 -20 -20 -20 -9 -16 -20 -13 10 4 -7 -20 -20 -20 -20 -20 -20 -20 -17 -18 -1 6 8 11 13 10 7
-20 -20 -20 -20 -20 -20 -20 -20 -20 -20 -20 -20 -20 -20 -20 -20 -20 -20 -20 -20 -20 1 -20 -20 4 7 4 -20 -20 -20 -20 -20 -13 -20 -20 -16 -20 6 6 8 10 11 7 8
-20 -20 -20 -20 -20 -20 -20 -20 -20 -20 -20 -20 -20 -20 -20 -20 -20 -20 -20 -20 -2 -11 -20 -19 -8 2 -20 -20 -20 -20 -19 -13 -7 -9 -2 -12 -20 5 10 10 10 9 11 15
-20 -20 -20 -20 -20 -20 -20 -20 -20 -20 -20 -20 -20 -20 -20 -20 -20 -20 -20 -20 -20 -16 -20 -20 -20 -20 -20 -20 -20 -18 -3 1 8 3 -3 -5 2 7 12 13 13 13 14 16
-20 -20 -20 -20 -20 -20 -20 -20 -20 -20 -20 -20 -20 -20 -20 -20 -20 -20 -20 -20 -20 -20 -20 -20 -20 -20 -20 -15 -11 -4 3 2 6 3 7 6 10 13 15 15 15 15 16 16
-20 -20 -20 -20 -20 -20 -20 -20 -20 -20 -20 -20 -20 -20 -20 -20 -20 -20 -20 -20 -20 -20 -20 -20 -20 -20 -20 -20 -19 -0 6 9 14 10 10 14 12 16 16 15 14 15 15 13
Wind_Speed
9 8 6 10 16 7 12 11 7 6 7 7 5 3 4 4 5 6 7 9 11 11 11 13 13 13 14 14 14 14 14 15 15 15 14 14 14 14 14 14 14 15 15 15
4 10 3 8 11 8 12 12 10 16 18 1 1 2 4 6 5 6 10 13 13 12 13 13 14 15 16 15 15 14 14 15 15 15 14 14 14 14 14 14 14 14 15 15
4 2 5 10 8 7 4 4 5 5 4 1 3 6 5 8 6 6 10 13 13 14 13 13 14 15 16 15 15 15 15 15 15 15 15 15 15 15 15 15 14 15 15 15
4 4 3 3 2 1 5 6 8 2 3 2 3 5 9 4 2 7 11 14 14 12 13 13 14 15 16 15 15 15 15 14 14 14 16 17 16 16 15 13 14 14 14 15
3 3 8 2 3 4 4 5 1 4 1 2 3 5 4 4 2 8 10 10 11 13 14 12 13 14 15 16 15 14 15 15 15 15 17 18 18 17 15 13 13 14 14 14
2 2 6 1 3 3 3 5 4 3 2 3 4 4 3 4 10 11 11 10 12 15 14 12 13 14 15 15 15 15 15 16 16 16 16 16 16 17 14 12 14 12 14 14
5 5 9 4 5 5 1 4 4 2 3 2 3 4 6 9 10 9 10 12 12 13 13 13 13 14 15 16 15 16 17 17 16 16 17 16 16 14 13 13 13 13 14 13
2 2 10 6 4 7 2 2 2 3 3 3 5 7 9 9 10 12 13 14 13 13 14 14 13 12 15 15 16 16 17 17 17 17 14 13 15 15 14 13 12 12 12 11
11 7 1 4 1 2 2 2 2 2 1 2 5 6 9 10 10 12 13 12 11 12 14 14 13 11 15 16 16 16 16 18 17 17 15 14 14 14 11 11 10 10 9 8
1 3 4 4 3 3 2 3 3 2 2 2 5 6 9 8 10 11 11 12 11 14 14 15 14 14 13 15 15 16 17 17 16 15 16 14 11 10 9 9 9 9 8 7
6 3 2 2 3 4 4 4 3 2 2 3 4 7 6 9 10 10 12 12 12 13 13 15 14 15 15 15 15 16 16 15 15 12 13 14 12 10 9 10 11 9 7 5
5 2 3 3 4 3 4 2 2 3 3 2 3 7 8 9 9 9 11 12 13 15 14 15 15 15 15 15 15 15 16 13 13 12 11 11 11 12 16 18 20 18 13 8
3 3 3 5 5 2 3 2 2 3 3 5 4 5 6 9 8 14 12 12 12 15 15 14 14 15 15 15 15 16 15 15 12 13 11 11 11 11 12 12 15 13 9 7
4 5 3 3 4 3 3 3 4 3 3 4 5 6 6 8 11 10 11 13 13 14 14 13 13 15 16 16 17 16 14 24 12 11 11 11 11 11 9 9 9 6 5 4
4 4 4 6 5 4 3 3 4 4 4 5 4 6 7 10 11 12 13 13 14 13 13 13 14 15 16 17 16 16 14 12 12 11 10 13 11 10 8 7 6 4 2 3
5 5 5 4 4 3 3 4 4 5 5 6 6 8 9 10 11 11 12 11 11 13 15 14 15 17 17 16 16 14 13 22 18 11 10 10 9 10 9 6 6 3 0 2
4 2 2 2 3 2 2 2 3 5 6 6 8 9 10 11 10 10 11 11 11 12 12 13 16 18 15 16 17 12 11 12 21 10 9 9 9 9 9 5 5 2 1 4
6 5 5 4 2 1 3 3 4 5 5 8 8 8 9 9 10 12 13 13 12 11 11 13 17 17 17 16 16 11 10 11 10 10 10 10 9 9 9 5 3 2 2 7
5 5 4 3 2 1 2 3 4 5 6 6 7 8 8 9 9 11 11 12 11 12 15 17 25 21 17 18 20 10 10 11 11 10 9 14 10 9 6 3 2 2 5 6
4 4 3 2 2 2 2 3 4 5 6 5 6 7 8 9 9 11 11 10 8 9 16 16 18 17 17 16 23 10 11 11 11 11 9 9 9 9 4 4 2 4 5 6
4 3 3 3 3 3 2 2 3 5 7 5 6 7 8 9 8 8 10 9 12 15 18 21 15 12 11 17 13 11 11 11 11 10 10 9 10 8 3 1 4 5 6 6
2 2 1 2 3 4 3 4 3 5 5 5 6 6 8 9 9 9 7 6 10 24 13 11 11 24 18 23 11 11 12 12 10 9 9 9 8 7 1 3 4 5 6 7
2 2 1 2 2 4 6 4 4 4 5 5 6 6 5 6 6 6 10 10 10 16 10 10 23 29 29 12 11 12 13 13 11 10 9 9 9 4 3 3 4 6 6 7
1 2 2 2 1 2 5 5 5 4 3 5 4 3 4 6 6 2 5 13 19 17 12 14 20 28 25 11 12 12 12 12 11 10 10 15 9 7 5 4 5 5 6 9
2 2 1 1 2 2 3 4 5 4 4 4 4 4 4 3 2 6 6 7 15 13 9 18 24 25 12 12 12 12 12 12 13 11 10 10 10 9 6 5 5 6 6 7
2 2 2 3 3 2 3 3 2 3 2 4 3 3 4 4 4 5 5 10 7 12 8 9 10 11 11 12 13 14 13 13 14 12 13 11 10 10 9 8 7 6 6 7
2 1 0 2 1 2 3 2 1 3 4 3 3 3 4 4 5 6 10 7 7 7 8 8 8 11 11 12 12 12 12 12 18 14 12 11 11 10 9 9 8 7 7 7
Wind_Direction
256 261 225 256 264 227 217 227 217 268 252 289 270 259 281 309 312 317 327 333 326 321 320 319 318 318 316 314 315 312 309 306 304 302 300 299 298 297 297 295 293 292 290 289
259 271 279 266 264 213 234 250 257 268 279 111 255 308 307 304 312 328 331 325 321 320 320 319 320 317 315 314 313 311 307 303 303 301 301 299 299 299 298 296 294 292 288 287
258 337 303 276 255 179 189 202 186 224 233 62 295 310 312 306 332 333 320 318 319 319 317 318 317 315 311 313 311 309 305 304 304 304 304 304 305 303 299 296 294 290 288 286
280 341 252 265 53 152 225 245 219 262 219 213 269 292 289 293 44 322 320 321 316 313 313 314 313 312 312 313 308 307 304 304 306 307 308 307 304 299 297 295 292 289 286 284
245 232 301 229 189 165 185 266 172 194 301 296 333 312 283 143 348 315 305 305 305 307 307 311 312 310 312 309 308 307 307 309 310 311 310 307 303 301 295 293 289 285 282 281
144 229 270 199 183 151 129 271 187 148 280 307 349 318 256 335 328 317 312 312 313 309 312 311 317 315 315 310 312 311 314 312 310 307 305 301 296 299 293 287 283 285 284 279
215 252 280 208 170 151 146 292 172 186 245 208 238 231 297 315 310 308 306 310 313 313 309 313 315 316 309 311 312 312 311 309 306 306 301 296 299 295 291 289 286 284 283 282
129 207 273 154 116 187 172 109 146 156 175 254 271 294 302 309 313 315 315 321 322 316 314 315 319 314 310 310 312 312 310 308 307 305 302 301 298 296 292 290 287 287 286 294
188 217 136 177 69 62 73 119 148 140 64 305 292 298 311 316 318 316 315 315 314 311 308 313 313 316 310 312 315 314 312 311 308 305 304 301 296 295 294 292 288 287 286 292
137 209 195 161 92 90 84 114 99 64 332 306 293 307 309 312 315 314 314 318 318 315 312 310 316 316 312 314 315 315 311 309 308 307 308 308 300 293 285 289 290 288 286 287
258 243 119 169 125 141 118 88 65 9 295 307 315 313 298 310 310 311 312 316 319 312 308 309 314 317 318 317 318 314 310 309 307 306 305 306 301 296 289 286 286 290 282 270
237 143 119 124 133 110 106 90 23 344 327 335 315 312 315 310 304 307 304 322 313 310 311 312 317 316 316 317 315 312 311 310 306 310 309 307 306 305 300 301 303 306 301 280
173 120 76 110 100 62 119 68 351 8 338 330 325 299 307 307 305 318 315 311 309 306 307 311 312 313 315 314 314 313 308 305 307 311 306 305 306 307 307 315 314 310 322 310
81 111 92 175 168 110 72 49 357 354 356 323 311 316 308 309 310 314 310 309 306 308 308 310 315 311 312 313 314 308 308 309 307 302 301 302 303 305 303 307 316 320 335 341
87 60 98 116 106 75 43 17 8 347 330 322 310 302 312 316 315 313 309 309 311 307 310 318 318 312 317 317 310 317 313 306 301 300 305 305 304 299 303 301 304 307 328 40
128 109 115 108 103 64 29 9 352 331 330 322 321 323 316 307 302 304 304 312 317 318 315 317 314 315 318 310 319 314 307 305 314 311 308 306 301 300 300 304 303 298 104 87
118 172 132 119 78 38 6 334 329 316 319 319 317 316 316 315 311 314 314 314 311 304 304 309 315 314 309 325 317 309 299 315 316 309 304 302 298 295 296 296 295 265 142 128
88 84 88 116 150 294 335 351 337 324 319 313 313 316 312 315 312 313 314 316 315 316 317 319 315 321 326 318 314 310 323 314 311 308 305 302 298 293 289 289 281 192 122 132
92 105 91 92 108 196 320 335 323 315 308 304 316 310 299 292 298 308 314 318 324 326 325 318 325 332 319 319 327 334 319 314 311 308 304 304 302 296 288 287 251 138 126 120
97 87 79 69 45 74 313 320 319 309 299 304 307 302 309 315 319 318 320 314 303 318 310 321 336 320 319 329 343 330 319 316 312 310 308 308 300 298 299 293 170 126 124 118
110 62 53 26 347 340 330 293 312 315 311 310 305 307 310 307 310 318 324 328 329 324 328 339 329 317 341 348 345 327 323 319 317 312 312 309 307 300 307 264 112 123 120 117
116 86 338 324 325 309 322 320 308 305 308 313 309 309 321 324 330 325 307 300 323 327 337 336 321 344 352 356 333 331 329 327 319 323 322 315 308 301 2 94 111 112 116 118
159 180 253 297 280 288 313 309 318 305 313 313 315 322 321 307 304 322 332 331 332 324 347 330 345 354 360 349 341 336 336 336 332 339 334 327 324 352 47 83 100 112 116 118
201 208 227 262 331 10 346 306 315 300 268 290 289 288 313 328 322 256 290 324 330 349 346 337 353 359 0 345 345 342 343 341 345 350 347 355 350 356 31 65 89 101 109 108
220 241 182 36 0 286 282 288 307 315 324 327 327 318 303 290 253 305 324 316 340 352 343 344 356 357 351 346 348 347 349 348 355 0 1 2 359 359 12 51 76 90 97 101
207 240 220 216 224 257 273 294 278 296 316 339 308 318 316 310 311 343 315 344 343 352 341 343 351 355 349 347 350 350 354 353 1 360 11 11 10 11 12 27 55 72 84 91
275 216 357 330 273 273 277 310 8 319 324 292 282 299 310 315 332 353 353 344 345 345 344 349 349 357 356 353 348 350 352 356 3 7 7 17 19 19 19 27 37 56 68 81